User: anonymous   Login
Location: Bishop�s Knoyle
(51.0728°N, 2.1714°W)
Time: 03:56:52
(UTC+00:00)
Language:

SPROUT - Orbit

View from above orbital plane
View from above orbital plane
View from above satellite
View from above satellite

Ground track
Ground track

The orbit data is extracted from the following two-line orbital elements,

1 39770U 14029E   21339.87660003  .00001973  00000-0  21576-3 0  9994
2 39770  97.9298  91.1854 0008761  12.6426 347.5008 14.88968651408840
Epoch (UTC): 05 December 2021 21:02:18
Eccentricity: 0.0008761
inclination: 97.9298°
perigee height: 595 km
apogee height: 607 km
right ascension of ascending node: 91.1854°
argument of perigee: 12.6426°
revolutions per day: 14.88968651
mean anomaly at epoch: 347.5008°
orbit number at epoch: 40884

The dashed part of the orbit path shows where the satellite is in the earth's shadow,  

DLR